DLH9EE EDDF-LIMC

Flight info

Callsign DLH9EE
Flight time N/A
Altitude 33000
Route ANEKI2L/18 ANEKI Y163 NATOR DCT DITON DCT BASGO Z424 RIXUV
Aircraft A320/M-SDE2E3FGIJ1LORWXYZ/HB1

Departure

Time 2026-05-05 18:35
Airport Frankfurt Main Airport (EDDF)

Arrival

Time N/A
Airport Milan Malpensa International Airport (LIMC)
Time Latitude Longitude Altitude Speed Heading
2026-05-05 17:51 50.04852 8.56946 359 ft 0 kts 295°
2026-05-05 18:15 50.04845 8.56972 362 ft 4 kts 294°
2026-05-05 18:15 50.04835 8.57004 363 ft 3 kts 295°
2026-05-05 18:16 50.04830 8.57041 364 ft 4 kts 252°
2026-05-05 18:16 50.04844 8.57070 361 ft 3 kts 205°
2026-05-05 18:16 50.04830 8.57061 363 ft 4 kts 205°
2026-05-05 18:16 50.04806 8.57043 360 ft 4 kts 205°
2026-05-05 18:17 50.04792 8.57034 358 ft 0 kts 205°
2026-05-05 18:19 50.04791 8.57033 358 ft 2 kts 205°
2026-05-05 18:19 50.04751 8.57004 358 ft 11 kts 205°
2026-05-05 18:19 50.04661 8.56939 360 ft 18 kts 203°
2026-05-05 18:19 50.04543 8.56888 360 ft 17 kts 194°
2026-05-05 18:20 50.04448 8.56808 364 ft 16 kts 243°
2026-05-05 18:20 50.04406 8.56638 360 ft 17 kts 249°
2026-05-05 18:20 50.04364 8.56460 359 ft 17 kts 249°
2026-05-05 18:20 50.04327 8.56307 355 ft 15 kts 250°
2026-05-05 18:21 50.04290 8.56150 358 ft 16 kts 250°
2026-05-05 18:21 50.04250 8.55983 362 ft 17 kts 250°
2026-05-05 18:21 50.04208 8.55806 354 ft 18 kts 249°
2026-05-05 18:21 50.04163 8.55618 358 ft 19 kts 249°
2026-05-05 18:22 50.04117 8.55421 354 ft 19 kts 248°
2026-05-05 18:22 50.04069 8.55228 355 ft 19 kts 250°
2026-05-05 18:22 50.04024 8.55036 360 ft 19 kts 250°
2026-05-05 18:22 50.03976 8.54837 357 ft 21 kts 250°
2026-05-05 18:23 50.03926 8.54622 350 ft 22 kts 247°
2026-05-05 18:23 50.03868 8.54397 349 ft 23 kts 244°
2026-05-05 18:23 50.03789 8.54178 351 ft 23 kts 249°
2026-05-05 18:23 50.03733 8.53940 349 ft 24 kts 249°
2026-05-05 18:24 50.03674 8.53704 349 ft 22 kts 248°
2026-05-05 18:24 50.03619 8.53476 337 ft 23 kts 249°
2026-05-05 18:24 50.03563 8.53244 337 ft 23 kts 249°
2026-05-05 18:24 50.03515 8.53044 336 ft 17 kts 249°
2026-05-05 18:25 50.03483 8.52919 335 ft 9 kts 248°
2026-05-05 18:25 50.03478 8.52898 336 ft 0 kts 247°
2026-05-05 18:25 50.03474 8.52885 334 ft 5 kts 247°
2026-05-05 18:26 50.03456 8.52818 332 ft 0 kts 247°
2026-05-05 18:28 50.03455 8.52815 333 ft 3 kts 246°
2026-05-05 18:29 50.03434 8.52734 335 ft 8 kts 249°
2026-05-05 18:29 50.03432 8.52727 331 ft 0 kts 249°
2026-05-05 18:31 50.03432 8.52725 331 ft 2 kts 249°
2026-05-05 18:31 50.03414 8.52652 333 ft 12 kts 248°
2026-05-05 18:32 50.03341 8.52594 336 ft 13 kts 179°
2026-05-05 18:32 50.03323 8.52595 334 ft 0 kts 179°
2026-05-05 18:34 50.03311 8.52595 336 ft 10 kts 179°
2026-05-05 18:34 50.02965 8.52597 335 ft 87 kts 180°
2026-05-05 18:35 50.02145 8.52605 335 ft 145 kts 179°
2026-05-05 18:35 50.01047 8.52610 742 ft 160 kts 181°
2026-05-05 18:35 49.99924 8.52605 1468 ft 161 kts 181°
2026-05-05 18:35 49.98753 8.52651 1969 ft 178 kts 180°
2026-05-05 18:36 49.97452 8.52734 2410 ft 195 kts 179°
2026-05-05 18:36 49.96033 8.52835 2822 ft 213 kts 179°
2026-05-05 18:36 49.94459 8.52935 3271 ft 234 kts 179°
2026-05-05 18:36 49.92825 8.53033 4217 ft 233 kts 179°
2026-05-05 18:37 49.91210 8.53145 5271 ft 232 kts 179°
2026-05-05 18:37 49.89596 8.53277 6243 ft 233 kts 179°
2026-05-05 18:37 49.87969 8.53419 7118 ft 235 kts 179°
2026-05-05 18:37 49.86342 8.53555 7969 ft 239 kts 180°
2026-05-05 18:38 49.84647 8.53685 8880 ft 242 kts 180°
2026-05-05 18:38 49.82977 8.53804 9768 ft 245 kts 180°
2026-05-05 18:38 49.81255 8.53924 10596 ft 249 kts 180°
2026-05-05 18:38 49.79519 8.54046 11417 ft 252 kts 180°
2026-05-05 18:39 49.77753 8.54095 12223 ft 256 kts 187°
2026-05-05 18:39 49.75900 8.53861 12599 ft 279 kts 187°
2026-05-05 18:39 49.73887 8.53585 12901 ft 302 kts 187°
2026-05-05 18:39 49.71712 8.53286 13210 ft 324 kts 187°
2026-05-05 18:40 49.69430 8.52978 13823 ft 333 kts 187°
2026-05-05 18:40 49.67106 8.52668 14519 ft 337 kts 187°
2026-05-05 18:40 49.64756 8.52358 15232 ft 341 kts 186°
2026-05-05 18:40 49.62420 8.52049 15947 ft 344 kts 186°
2026-05-05 18:41 49.60024 8.51733 16668 ft 347 kts 186°
2026-05-05 18:41 49.57612 8.51418 17387 ft 350 kts 186°
2026-05-05 18:41 49.55166 8.51097 18111 ft 354 kts 186°
2026-05-05 18:41 49.52699 8.50774 18728 ft 357 kts 186°
2026-05-05 18:42 49.50215 8.50449 19339 ft 360 kts 186°
2026-05-05 18:42 49.47707 8.50121 19935 ft 364 kts 185°
2026-05-05 18:42 49.45174 8.49791 20536 ft 367 kts 185°
2026-05-05 18:42 49.42616 8.49459 21129 ft 370 kts 185°
2026-05-05 18:43 49.40037 8.49128 21691 ft 374 kts 185°
2026-05-05 18:43 49.37428 8.48787 22267 ft 378 kts 185°
2026-05-05 18:43 49.34803 8.48441 22849 ft 381 kts 185°
2026-05-05 18:43 49.32153 8.48096 23322 ft 384 kts 185°
2026-05-05 18:44 49.29487 8.47752 23565 ft 384 kts 185°
2026-05-05 18:44 49.26820 8.47409 23762 ft 385 kts 185°
2026-05-05 18:44 49.24148 8.47061 23828 ft 386 kts 185°
2026-05-05 18:44 49.21511 8.46718 23835 ft 386 kts 185°
2026-05-05 18:45 49.18806 8.46366 23833 ft 385 kts 185°
2026-05-05 18:45 49.16170 8.46055 23921 ft 387 kts 184°
2026-05-05 18:45 49.13476 8.45826 24429 ft 389 kts 183°
2026-05-05 18:45 49.10766 8.45645 24925 ft 391 kts 182°
2026-05-05 18:46 49.08042 8.45480 25406 ft 393 kts 182°
2026-05-05 18:46 49.05297 8.45311 25878 ft 396 kts 182°
2026-05-05 18:46 49.02539 8.45134 26340 ft 398 kts 182°
2026-05-05 18:46 48.99763 8.44945 26795 ft 401 kts 182°
2026-05-05 18:47 48.96976 8.44748 27263 ft 403 kts 182°
2026-05-05 18:47 48.94164 8.44548 27711 ft 405 kts 182°
2026-05-05 18:47 48.91345 8.44348 28162 ft 407 kts 182°
2026-05-05 18:47 48.88501 8.44146 28594 ft 410 kts 182°
2026-05-05 18:48 48.85640 8.43941 29030 ft 412 kts 182°
2026-05-05 18:48 48.82767 8.43737 29451 ft 415 kts 182°
2026-05-05 18:48 48.79871 8.43533 29865 ft 417 kts 182°
2026-05-05 18:48 48.76962 8.43331 30219 ft 420 kts 182°
2026-05-05 18:49 48.74042 8.43130 30575 ft 421 kts 182°
2026-05-05 18:49 48.71111 8.42928 30920 ft 423 kts 182°
2026-05-05 18:49 48.68167 8.42723 31253 ft 424 kts 183°
2026-05-05 18:49 48.66213 8.42585 31487 ft 425 kts 183°
2026-05-05 18:50 48.63264 8.42376 31949 ft 424 kts 183°
2026-05-05 18:50 48.60320 8.42165 32269 ft 423 kts 183°
2026-05-05 18:50 48.57395 8.41956 32531 ft 421 kts 183°
2026-05-05 18:50 48.54467 8.41753 32768 ft 421 kts 183°
2026-05-05 18:51 48.48730 8.41358 32849 ft 402 kts 183°
2026-05-05 18:51 48.43195 8.40974 32849 ft 396 kts 183°
2026-05-05 18:52 48.37691 8.40597 32855 ft 396 kts 183°
2026-05-05 18:52 48.32188 8.40227 32862 ft 396 kts 184°
2026-05-05 18:53 48.26689 8.39845 32863 ft 396 kts 184°
2026-05-05 18:53 48.21193 8.39462 32865 ft 395 kts 184°
2026-05-05 18:54 48.15695 8.39084 32868 ft 395 kts 184°
2026-05-05 18:54 48.10197 8.38709 32872 ft 395 kts 184°
2026-05-05 18:55 48.04714 8.38344 32880 ft 394 kts 184°
2026-05-05 18:55 47.99278 8.37972 32883 ft 393 kts 184°
2026-05-05 18:56 47.93809 8.37599 32873 ft 393 kts 184°
2026-05-05 18:56 47.88350 8.37224 32875 ft 393 kts 185°
2026-05-05 18:57 47.82901 8.36853 32880 ft 392 kts 185°
2026-05-05 18:57 47.77450 8.36487 32882 ft 392 kts 185°
2026-05-05 18:58 47.71994 8.36113 32884 ft 392 kts 185°
2026-05-05 18:58 47.66545 8.35754 32887 ft 392 kts 185°
2026-05-05 18:59 47.61091 8.35395 32889 ft 392 kts 185°
2026-05-05 18:59 47.55648 8.35030 32893 ft 392 kts 185°
2026-05-05 19:00 47.50201 8.34668 32894 ft 392 kts 185°
2026-05-05 19:00 47.44766 8.34294 32887 ft 391 kts 186°
2026-05-05 19:01 47.39326 8.33934 32881 ft 391 kts 186°
2026-05-05 19:01 47.33896 8.33580 32889 ft 390 kts 186°
2026-05-05 19:02 47.28433 8.33562 32916 ft 402 kts 178°
2026-05-05 19:02 47.22797 8.34332 32925 ft 414 kts 178°
2026-05-05 19:03 47.17047 8.35132 32924 ft 412 kts 178°
2026-05-05 19:03 47.14243 8.35527 32930 ft 399 kts 178°
2026-05-05 19:03 47.11487 8.35910 32932 ft 401 kts 179°
2026-05-05 19:04 47.08671 8.36289 32922 ft 412 kts 179°
2026-05-05 19:04 47.05790 8.36672 32922 ft 421 kts 179°
2026-05-05 19:04 46.99857 8.37463 32944 ft 431 kts 179°
2026-05-05 19:05 46.93870 8.38280 32939 ft 433 kts 179°
2026-05-05 19:05 46.87868 8.39103 32949 ft 433 kts 179°
2026-05-05 19:06 46.81889 8.39920 32928 ft 431 kts 180°
2026-05-05 19:06 46.75918 8.40743 32938 ft 431 kts 180°
2026-05-05 19:07 46.69953 8.41547 32790 ft 432 kts 180°
2026-05-05 19:07 46.66934 8.41948 31668 ft 438 kts 179°
2026-05-05 19:07 46.63923 8.42353 30514 ft 432 kts 179°
2026-05-05 19:08 46.60933 8.42757 29283 ft 432 kts 179°
2026-05-05 19:08 46.57913 8.43160 28226 ft 436 kts 179°
2026-05-05 19:08 46.54908 8.43565 27817 ft 432 kts 179°
2026-05-05 19:08 46.51922 8.43969 27355 ft 429 kts 179°
2026-05-05 19:09 46.48958 8.44371 26862 ft 426 kts 179°
2026-05-05 19:09 46.46018 8.44766 26366 ft 423 kts 179°
2026-05-05 19:09 46.43100 8.45152 25866 ft 419 kts 178°
2026-05-05 19:09 46.40208 8.45529 25332 ft 416 kts 179°
2026-05-05 19:10 46.37342 8.45905 24833 ft 411 kts 179°
2026-05-05 19:10 46.34507 8.46287 24300 ft 407 kts 179°
2026-05-05 19:10 46.31698 8.46663 23797 ft 404 kts 179°
2026-05-05 19:10 46.28905 8.47032 23219 ft 402 kts 179°
2026-05-05 19:11 46.26133 8.47398 22684 ft 399 kts 178°
2026-05-05 19:11 46.23376 8.47781 22068 ft 398 kts 178°
2026-05-05 19:11 46.20611 8.48218 21248 ft 399 kts 177°
2026-05-05 19:11 46.17870 8.48710 20759 ft 395 kts 176°
2026-05-05 19:12 46.15163 8.49222 20321 ft 391 kts 176°
2026-05-05 19:12 46.12464 8.49742 20330 ft 390 kts 176°
2026-05-05 19:12 46.09780 8.50248 20792 ft 385 kts 176°
2026-05-05 19:12 46.07194 8.50733 20967 ft 366 kts 177°
2026-05-05 19:13 46.04699 8.51194 20991 ft 359 kts 177°
2026-05-05 19:13 46.02229 8.51640 20999 ft 357 kts 177°
2026-05-05 19:13 45.99761 8.52078 20824 ft 357 kts 177°
2026-05-05 19:13 45.97324 8.52514 20608 ft 347 kts 177°
2026-05-05 19:14 45.94977 8.52940 20482 ft 334 kts 177°
2026-05-05 19:14 45.92709 8.53349 20231 ft 324 kts 177°
2026-05-05 19:14 45.90499 8.53746 19743 ft 316 kts 177°
2026-05-05 19:14 45.88333 8.54132 19245 ft 312 kts 177°
2026-05-05 19:15 45.86191 8.54512 18727 ft 310 kts 177°
2026-05-05 19:15 45.84050 8.54892 18105 ft 310 kts 177°
2026-05-05 19:15 45.81910 8.55270 17421 ft 309 kts 177°
2026-05-05 19:15 45.79783 8.55648 16759 ft 306 kts 177°
2026-05-05 19:16 45.77680 8.56021 16116 ft 303 kts 176°
2026-05-05 19:16 45.75593 8.56397 15484 ft 301 kts 176°
2026-05-05 19:16 45.73518 8.56772 14863 ft 300 kts 176°
2026-05-05 19:16 45.71458 8.57157 14257 ft 298 kts 176°
2026-05-05 19:17 45.69411 8.57550 13626 ft 296 kts 175°
2026-05-05 19:17 45.67371 8.57945 12962 ft 295 kts 175°
2026-05-05 19:17 45.65348 8.58332 12310 ft 293 kts 175°
2026-05-05 19:17 45.63339 8.58715 11804 ft 290 kts 175°
2026-05-05 19:18 45.61337 8.59097 11427 ft 290 kts 175°
2026-05-05 19:18 45.59343 8.59476 11081 ft 289 kts 174°
2026-05-05 19:18 45.57387 8.59859 10705 ft 285 kts 173°
2026-05-05 19:18 45.55453 8.60339 10343 ft 280 kts 171°
2026-05-05 19:19 45.53539 8.60879 9978 ft 274 kts 171°
2026-05-05 19:19 45.51689 8.61417 9590 ft 269 kts 171°
2026-05-05 19:19 45.49898 8.61933 9219 ft 263 kts 171°
2026-05-05 19:19 45.48155 8.62429 9088 ft 248 kts 171°
2026-05-05 19:20 45.46488 8.62901 8767 ft 242 kts 171°
2026-05-05 19:20 45.44842 8.63361 8376 ft 240 kts 171°
2026-05-05 19:20 45.43209 8.63818 8042 ft 238 kts 171°
2026-05-05 19:20 45.41586 8.64269 7716 ft 236 kts 171°
2026-05-05 19:21 45.40006 8.64703 7597 ft 227 kts 171°
2026-05-05 19:21 45.38483 8.65122 7470 ft 219 kts 171°
2026-05-05 19:21 45.37007 8.65530 7298 ft 214 kts 171°
2026-05-05 19:21 45.35550 8.65934 7098 ft 213 kts 171°
2026-05-05 19:22 45.34094 8.66333 7027 ft 212 kts 171°
2026-05-05 19:22 45.32639 8.66732 7034 ft 213 kts 171°
2026-05-05 19:22 45.31187 8.67132 7034 ft 213 kts 171°
2026-05-05 19:22 45.29733 8.67536 7036 ft 213 kts 171°
2026-05-05 19:23 45.28285 8.67934 6881 ft 211 kts 171°
2026-05-05 19:23 45.26841 8.68331 6627 ft 211 kts 171°
2026-05-05 19:23 45.25400 8.68725 6382 ft 210 kts 171°
2026-05-05 19:23 45.23964 8.69117 6124 ft 210 kts 170°
2026-05-05 19:24 45.22531 8.69513 6026 ft 210 kts 170°
2026-05-05 19:24 45.21098 8.69908 6027 ft 210 kts 170°